EW1742 Weather Reports


time (UTC)temp
F
wind
direction
speed
knots
gust
knots
rain 1hr
in
rain 24hr
in
rain mn
in
humidity
%
barometer
mb
20260504183042 72 247 0.0 0.0 0.00 0.00 0.00 34 1015.0
20260504181542 71 203 0.0 5.2 0.00 0.00 0.00 38 1015.3
20260504180040 71 156 0.0 0.0 0.00 0.00 0.00 35 1015.5
20260504174540 71 156 0.0 0.0 0.00 0.00 0.00 36 1015.7
20260504173036 72 156 0.0 0.0 0.00 0.00 0.00 36 1015.8
20260504171535 72 156 0.0 0.0 0.00 0.00 0.00 35 1016.0
20260504081600 40 152 0.0 0.0 0.00 0.00 0.00 79 1018.1
20260504044535 38 152 0.0 0.0 0.00 0.00 0.00 81 1018.1
20260504043033 39 152 0.0 0.0 0.00 0.00 0.00 82 1018.2
20260504041530 39 152 0.0 0.0 0.00 0.00 0.00 80 1018.1
20260504040030 39 152 0.0 0.0 0.00 0.00 0.00 78 1018.0
20260504034528 40 152 0.0 0.0 0.00 0.00 0.00 78 1017.9
20260504033026 40 152 0.0 0.0 0.00 0.00 0.00 77 1017.8
20260504031528 40 152 0.0 0.0 0.00 0.00 0.00 75 1017.7
20260504030025 41 152 0.0 0.0 0.00 0.00 0.00 76 1017.7
20260504024525 42 152 0.0 0.0 0.00 0.00 0.00 73 1017.7
20260504023023 42 152 0.0 0.0 0.00 0.00 0.00 72 1017.6
20260504021522 43 152 0.0 0.0 0.00 0.00 0.00 72 1017.5
20260504020025 44 152 0.0 0.0 0.00 0.00 0.00 69 1017.4
20260504014539 44 152 0.0 0.0 0.00 0.00 0.00 69 1017.4
20260504013020 45 152 0.0 0.0 0.00 0.00 0.00 67 1017.3
20260504011521 45 152 0.0 0.0 0.00 0.00 0.00 67 1017.1
20260504010019 46 152 0.0 0.0 0.00 0.00 0.00 67 1016.9
20260504004518 46 152 0.0 0.0 0.00 0.00 0.00 61 1016.6
20260504003017 48 152 0.0 0.0 0.00 0.00 0.00 57 1016.3
20260504001518 49 152 0.0 0.0 0.00 0.00 0.00 56 1016.1
20260504000034 51 152 0.0 0.0 0.00 0.00 0.00 50 1016.0
20260503234516 52 152 0.0 0.0 0.00 0.00 0.00 48 1015.8
20260503233019 53 152 0.0 0.0 0.00 0.00 0.00 41 1015.7
20260503231515 54 152 0.0 0.0 0.00 0.00 0.00 39 1015.7
20260503230014 54 152 0.0 0.0 0.00 0.00 0.00 38 1015.6
20260503224513 54 152 0.0 0.0 0.00 0.00 0.00 39 1015.5
20260503223012 54 152 0.0 0.0 0.00 0.00 0.00 39 1015.5
20260503221512 54 152 0.0 0.0 0.00 0.00 0.00 40 1015.3
20260503220017 54 152 0.0 0.0 0.00 0.00 0.00 40 1015.5
20260503214522 54 153 0.0 0.0 0.00 0.00 0.00 40 1015.5
20260503213010 54 153 0.0 0.0 0.00 0.00 0.00 40 1015.5
20260503211512 54 153 0.0 0.0 0.00 0.00 0.00 40 1015.6
20260503210028 55 153 0.0 0.0 0.00 0.00 0.00 40 1015.4
20260503204511 54 153 0.0 0.0 0.00 0.00 0.00 39 1015.5
20260503203014 54 153 0.0 0.0 0.00 0.00 0.00 40 1015.5
20260503201511 54 153 0.0 0.0 0.00 0.00 0.00 40 1015.4
20260503200007 53 153 0.0 0.0 0.00 0.00 0.00 41 1015.3
20260503194507 55 154 0.0 0.0 0.00 0.00 0.00 39 1015.3
20260503193006 55 153 0.0 0.0 0.00 0.00 0.00 42 1015.3
20260503191506 55 152 0.0 0.0 0.00 0.00 0.00 40 1015.3
20260503190005 55 153 0.0 0.0 0.00 0.03 0.00 38 1015.2
20260503184505 56 153 0.0 0.0 0.00 0.03 0.00 40 1015.3